Wetbulb
35.31 36.03 36.18 35.80 36.11 37.77 37.67 39.03 35.97 39.38 40.90 43.88 46.51 47.61 49.48 51.96 53.37 53.69 54.63 54.12 55.80 57.63 59.03 59.66 59.93 60.18 60.42 60.58 60.32 60.45 59.77 59.42 59.37 59.79 60.03 59.87 59.52 59.51 59.52 59.57 59.46 59.28 59.64 59.86
33.01 36.96 36.59 34.22 36.90 38.10 38.55 39.91 40.68 41.21 40.64 47.82 49.08 49.85 49.61 50.71 51.55 51.94 53.71 55.16 55.84 56.29 58.07 59.39 59.71 59.89 60.22 60.47 60.69 60.52 59.72 59.46 59.99 59.79 59.67 59.47 59.34 59.46 59.71 59.75 60.16 60.41 60.40 60.43
29.10 35.70 35.89 31.65 36.12 37.94 39.31 41.64 42.36 39.35 44.42 48.21 47.73 48.18 49.89 51.80 52.68 52.79 53.89 54.63 55.40 55.86 56.16 58.62 59.67 59.94 60.27 60.66 61.23 60.14 59.91 59.82 59.77 59.70 59.08 59.19 59.34 59.18 58.56 58.67 59.32 58.44 57.33 55.34
28.39 32.06 24.73 37.32 43.29 43.08 41.12 43.36 45.39 45.74 46.67 47.97 49.26 50.52 51.94 52.82 53.19 53.50 54.13 54.38 55.23 56.08 55.10 56.30 59.71 60.27 61.11 60.77 60.29 59.67 59.56 59.19 59.16 58.91 58.57 58.79 58.56 57.82 56.56 52.44 49.22 45.98 42.88 40.77
26.51 27.74 32.72 36.19 40.28 41.62 41.04 41.07 46.18 46.86 47.87 48.48 50.03 50.91 50.62 53.14 53.45 52.88 52.68 53.35 54.72 55.69 55.98 56.59 56.38 58.17 58.94 59.17 59.09 58.18 55.97 56.35 56.92 57.17 54.80 51.71 48.73 47.90 45.69 42.45 38.57 37.19 37.02 36.21
29.66 24.24 22.27 34.96 43.68 46.26 45.36 36.22 47.37 47.48 47.49 48.99 50.32 44.99 48.20 53.13 52.78 52.94 53.25 54.19 54.43 55.30 55.49 55.35 55.25 55.74 53.67 51.96 50.53 48.72 48.60 48.24 48.05 47.55 46.11 43.42 41.45 39.11 38.13 36.33 34.84 34.02 32.97 33.68
28.03 26.50 31.20 39.59 43.68 46.82 34.08 37.19 46.18 47.14 47.09 48.52 48.61 50.96 53.29 52.24 49.71 51.60 51.30 51.30 51.99 52.18 51.32 52.14 52.47 50.41 47.64 46.52 44.66 44.60 43.85 43.12 42.06 41.30 39.70 38.85 37.24 36.17 34.79 32.87 31.43 30.54 30.03 30.51
28.71 27.31 24.79 42.76 42.52 36.63 40.69 45.78 47.02 46.20 46.52 48.25 51.45 51.14 51.93 48.58 47.88 47.70 48.16 48.07 49.03 48.04 47.86 49.54 49.06 46.27 42.79 40.64 40.82 40.34 39.46 38.49 37.92 37.79 37.48 36.69 35.34 34.41 33.14 31.85 30.58 29.93 29.21 28.39
34.16 32.50 41.39 43.73 42.36 44.14 44.98 45.30 46.29 45.66 46.47 49.79 50.72 51.17 47.52 46.38 45.83 45.15 44.09 42.11 40.94 39.97 41.01 42.02 42.87 42.03 38.62 38.38 38.70 38.30 38.08 36.88 35.96 35.63 35.37 35.65 34.49 33.64 32.67 32.02 30.54 29.24 28.13 27.20
36.89 39.08 40.87 41.52 42.54 44.49 45.56 46.98 48.17 49.40 49.95 50.97 48.78 49.06 46.40 45.59 44.50 42.25 40.70 39.23 38.60 37.66 36.32 36.13 38.15 38.19 38.38 38.95 39.07 38.29 36.68 36.22 36.07 34.63 33.69 33.25 32.70 32.21 31.98 31.52 30.29 29.43 28.48 27.46
37.28 39.65 40.93 42.35 44.45 45.09 45.95 48.34 47.05 47.73 50.33 50.93 48.15 46.31 43.74 41.76 40.65 39.66 37.32 37.35 37.09 36.12 35.87 35.49 36.90 38.08 40.30 40.84 40.03 37.30 35.65 35.19 34.23 33.01 31.41 29.64 29.70 30.33 29.36 29.63 31.52 31.11 29.82 29.90
35.22 41.51 41.07 41.20 44.29 46.08 45.46 47.37 46.70 46.14 50.59 50.18 47.19 43.61 41.01 36.94 36.04 35.65 34.78 34.93 34.26 34.77 34.74 34.88 36.14 36.98 38.52 39.83 38.85 36.43 34.52 34.49 34.34 33.94 32.93 30.85 28.47 26.90 28.21 28.02 27.54 27.39 27.49 27.68
41.24 44.41 44.43 44.90 45.35 46.81 46.80 45.64 44.14 45.15 47.61 43.50 41.15 38.90 35.97 32.93 32.01 31.70 32.26 32.34 31.36 31.41 31.91 31.85 32.52 32.30 34.69 37.10 34.87 33.44 32.04 31.79 32.57 32.41 32.46 30.52 28.94 27.25 23.69 24.16 24.21 24.52 24.15 23.87
44.61 44.27 42.30 44.35 43.43 46.06 45.38 43.13 41.73 41.06 40.96 39.42 36.63 34.30 32.92 32.03 30.89 28.45 27.79 28.58 28.82 28.63 27.91 28.69 27.83 27.30 29.17 30.82 30.16 29.47 30.09 29.53 30.91 29.93 29.53 29.23 28.50 27.67 27.06 25.02 22.70 21.10 20.08 20.09
44.06 45.74 45.07 45.57 45.51 44.35 44.64 43.74 40.37 37.60 36.94 34.93 33.39 30.42 29.49 27.59 25.57 25.56 25.82 25.95 25.28 24.32 24.13 23.68 23.09 24.06 27.93 29.04 29.20 29.40 28.71 27.48 27.49 27.01 27.00 26.57 26.27 25.19 24.52 23.58 22.35 21.28 21.19 19.93
44.71 44.93 45.08 44.49 45.55 43.29 41.49 41.16 38.27 33.94 32.06 30.22 28.95 27.23 25.93 25.46 24.37 23.95 24.84 25.16 22.21 20.55 22.17 22.48 23.47 25.15 26.61 26.74 25.45 25.04 24.10 23.72 24.29 24.30 23.87 23.17 23.03 22.23 21.37 20.66 19.45 18.17 16.58 15.71
41.55 41.57 42.85 43.49 42.06 39.73 39.96 38.90 36.50 31.00 28.31 26.82 25.05 24.54 22.81 21.09 19.82 18.69 18.80 20.63 21.15 21.15 22.61 23.07 23.28 24.90 25.23 25.28 24.92 23.47 21.75 20.72 20.75 21.51 20.53 20.36 20.15 19.38 19.06 18.42 17.57 16.78 13.93 12.10
40.78 41.40 41.77 41.83 41.96 37.79 35.62 35.15 33.17 29.77 26.43 24.11 23.18 22.51 20.90 18.91 16.94 16.83 17.58 18.43 18.15 18.69 19.95 20.32 21.50 21.78 21.65 21.93 22.24 21.50 20.50 19.71 19.14 18.54 18.55 17.81 17.30 17.49 16.74 15.86 15.30 14.57 14.58 12.38
36.34 36.46 36.56 36.99 38.82 36.34 33.75 31.16 28.47 25.78 23.90 22.85 20.73 19.05 18.78 18.03 17.60 17.32 18.37 17.44 17.27 15.98 16.77 19.11 19.59 19.44 18.67 19.25 20.08 20.03 18.85 17.63 16.66 15.67 15.28 14.41 15.32 15.26 14.60 14.28 13.35 12.90 13.10 12.18
30.71 32.86 33.57 33.36 33.22 32.26 27.47 26.00 24.57 22.92 22.32 20.59 18.97 18.02 17.64 17.69 18.19 17.83 18.69 16.86 16.95 16.65 17.78 17.71 17.66 17.14 17.06 17.21 17.38 17.89 17.00 16.12 14.43 14.03 14.09 13.62 13.52 12.79 11.18 8.89 11.03 11.38 11.36 10.79
27.86 28.31 27.80 27.22 26.02 25.40 24.34 23.30 21.14 19.96 20.33 19.27 16.61 15.48 15.36 16.81 17.45 17.43 16.06 13.82 15.65 16.96 16.66 16.13 16.18 15.86 15.70 15.66 16.05 15.66 14.77 13.79 13.16 12.75 12.27 11.77 11.54 11.07 10.73 10.45 10.46 10.07 9.47 9.26
24.08 23.10 22.78 22.45 21.77 21.10 21.70 21.40 19.95 18.83 17.99 16.80 16.00 15.27 14.19 14.01 14.37 14.39 15.72 13.80 14.95 14.37 14.98 14.52 13.74 12.24 13.02 13.25 14.25 13.82 12.94 12.26 11.81 11.91 11.20 10.82 10.52 9.89 9.26 9.04 8.07 8.10 8.09 7.75
21.32 20.95 20.53 19.22 17.67 17.47 17.65 17.47 17.31 17.02 16.00 16.34 16.21 16.48 15.72 15.34 14.78 11.99 9.75 13.23 14.03 12.44 12.72 10.60 8.06 8.64 10.09 12.52 12.09 11.23 10.46 9.75 9.32 9.15 9.05 8.77 8.59 8.29 7.89 6.51 7.22 6.90 6.26 5.16
21.85 21.00 19.96 19.76 19.77 18.93 16.49 17.09 17.02 16.47 15.43 15.26 14.80 15.15 14.11 12.05 11.63 12.18 11.71 10.53 10.08 10.89 10.26 8.74 7.39 7.56 9.03 10.83 10.50 9.98 10.10 9.45 9.09 8.60 7.12 4.96 7.63 6.86 6.84 5.22 4.78 5.54 4.48 3.21
21.08 20.52 19.66 18.60 17.33 16.80 16.62 16.17 15.15 14.86 14.66 13.91 13.36 13.53 13.73 13.95 11.41 11.48 11.24 10.34 9.47 9.46 7.92 4.70 5.79 7.48 10.22 9.95 9.10 8.75 8.77 8.61 8.09 7.88 7.20 6.56 6.40 5.59 5.91 5.18 3.34 3.03 2.18 2.77
21.18 20.14 19.54 19.11 18.28 17.43 16.89 15.98 13.70 13.34 12.53 10.99 11.09 11.94 11.82 11.32 10.65 10.56 10.41 8.98 9.04 8.15 8.29 8.41 8.74 9.05 8.90 8.27 7.83 7.61 7.55 6.86 7.00 5.49 4.88 5.60 4.60 4.74 3.16 2.26 1.81 2.29 2.15 1.80
18.86 18.21 17.49 17.13 17.46 16.49 15.94 14.99 13.55 12.21 12.17 11.84 10.68 11.23 11.08 10.38 9.47 9.04 8.31 9.23 8.59 8.06 8.09 8.77 8.92 7.86 8.20 8.12 7.20 6.69 7.17 5.90 0.86 3.94 5.13 4.69 3.82 3.74 1.88 1.20 1.54 1.33 0.96 0.43
MSLP
1007.96 1006.89 1005.90 1005.14 1004.32 1003.70 1003.08 1002.56 1001.66 1000.77 999.64 998.69 998.20 997.32 996.41 995.83 995.55 995.79 995.92 996.32 996.84 997.47 997.95 998.54 999.50 1000.26 1001.10 1001.76 1002.93 1003.87 1004.73 1005.44 1005.94 1006.60 1007.23 1007.93 1008.61 1009.20 1009.79 1010.22 1010.60 1010.92 1011.05 1011.21
1008.19 1007.25 1006.23 1005.02 1003.90 1002.88 1002.24 1001.82 1000.91 1000.35 999.12 999.45 998.47 997.48 996.45 995.91 995.57 995.47 995.82 995.68 995.84 996.63 997.46 997.96 998.60 999.51 1000.29 1000.87 1002.02 1003.19 1003.96 1004.75 1005.49 1006.08 1006.60 1007.17 1007.78 1008.38 1008.90 1009.25 1009.60 1009.89 1010.08 1010.37
1007.98 1006.74 1005.81 1004.26 1002.65 1002.05 1000.99 1000.52 1000.38 999.38 998.53 997.90 997.18 996.58 995.85 995.48 995.34 995.20 995.42 995.49 995.57 996.15 996.89 997.66 998.47 999.28 999.98 1000.63 1001.66 1002.79 1003.57 1004.22 1004.96 1005.70 1006.27 1006.78 1007.30 1007.85 1008.37 1008.84 1009.34 1009.81 1010.35 1010.91
1008.73 1007.43 1004.96 1002.51 1001.64 1000.90 1000.33 1000.26 999.84 999.16 998.18 997.41 996.23 995.68 995.13 994.95 995.25 995.56 995.76 995.74 995.90 996.12 997.07 997.91 998.40 999.01 999.92 1000.69 1001.59 1002.54 1003.32 1004.10 1004.85 1005.60 1006.33 1006.94 1007.55 1008.17 1008.90 1009.89 1010.59 1011.35 1012.24 1012.85
1008.69 1006.66 1004.39 1002.61 1001.40 1001.13 1000.66 999.95 999.79 999.25 997.85 996.92 996.34 995.70 995.01 995.41 996.00 996.39 996.97 996.85 996.90 997.21 998.15 998.54 999.20 999.79 1000.56 1001.30 1002.07 1003.00 1004.16 1005.05 1005.76 1006.43 1007.35 1008.26 1009.12 1010.02 1010.86 1011.58 1012.53 1013.45 1014.02 1014.43
1008.59 1007.03 1004.60 1002.17 1001.69 1001.83 1001.38 1000.26 1000.19 1000.08 999.49 998.59 997.68 995.93 995.45 995.91 997.36 997.80 998.17 998.34 998.68 999.05 999.51 1000.19 1000.54 1001.17 1001.64 1003.18 1003.95 1004.94 1005.91 1006.68 1007.28 1007.97 1008.84 1009.76 1010.77 1011.64 1012.51 1013.16 1013.98 1014.74 1015.30 1015.79
1008.03 1006.88 1004.85 1003.32 1002.68 1002.49 1002.17 1001.78 1001.18 1001.00 1000.25 999.50 998.32 997.25 996.79 998.25 999.25 999.48 999.19 1000.02 1000.74 1001.00 1001.23 1001.55 1002.18 1002.75 1003.62 1004.54 1005.49 1006.42 1007.09 1007.71 1008.59 1009.45 1010.31 1011.32 1012.19 1012.98 1013.64 1014.45 1015.24 1015.89 1016.33 1016.98
1007.26 1006.28 1004.73 1003.94 1004.03 1004.58 1004.05 1002.82 1001.90 1001.46 1000.75 1000.16 999.27 998.82 999.27 1000.18 1000.63 1001.29 1001.32 1001.21 1002.18 1002.31 1002.62 1002.83 1003.36 1004.42 1005.32 1006.26 1007.26 1007.70 1008.63 1009.01 1009.80 1010.57 1011.42 1012.27 1012.93 1013.91 1014.61 1015.19 1015.83 1016.80 1017.42 1018.07
1005.46 1004.86 1003.97 1003.97 1004.45 1004.44 1004.22 1002.94 1001.72 1001.67 1001.07 1000.55 1000.13 1000.31 1001.29 1001.83 1002.20 1002.52 1002.69 1002.66 1003.98 1003.77 1004.28 1004.72 1005.23 1005.71 1006.53 1007.60 1007.91 1008.63 1009.11 1010.38 1011.02 1011.84 1012.46 1013.37 1013.95 1014.72 1015.53 1016.23 1016.89 1017.68 1018.09 1018.77
1004.28 1003.46 1003.77 1004.12 1004.92 1004.08 1003.72 1002.33 1001.57 1000.83 1000.65 1000.78 1000.89 1001.77 1002.68 1003.54 1003.61 1003.56 1004.20 1004.58 1004.99 1004.92 1006.14 1006.45 1006.94 1007.66 1007.89 1008.56 1008.75 1009.27 1010.21 1011.83 1012.38 1013.10 1013.92 1014.92 1015.71 1016.19 1016.66 1017.50 1017.96 1018.54 1019.00 1019.50
1003.09 1002.87 1002.98 1002.94 1002.86 1002.76 1002.19 1001.95 1001.82 1001.29 1000.63 1000.82 1001.59 1002.50 1003.49 1004.61 1005.35 1005.13 1004.93 1006.46 1006.12 1006.83 1006.93 1007.63 1009.00 1009.16 1009.09 1009.57 1009.70 1009.90 1011.93 1012.98 1013.97 1014.87 1015.32 1016.38 1017.33 1017.98 1018.49 1019.27 1019.14 1019.41 1019.94 1020.21
1002.30 1002.43 1002.49 1002.55 1002.53 1002.37 1001.95 1001.68 1002.02 1001.80 1001.23 1002.14 1003.14 1003.98 1004.65 1005.85 1006.66 1007.13 1006.40 1007.30 1007.62 1008.03 1008.79 1009.49 1009.93 1010.32 1010.64 1010.78 1010.46 1011.24 1012.62 1014.24 1015.17 1015.80 1016.43 1017.62 1018.59 1019.71 1020.65 1020.91 1021.01 1021.25 1021.46 1021.57
1002.01 1002.20 1002.31 1002.32 1002.42 1002.31 1002.15 1002.43 1003.00 1002.89 1003.20 1004.27 1004.63 1005.44 1006.34 1007.10 1007.10 1008.56 1008.76 1008.66 1009.46 1009.94 1010.32 1010.80 1011.33 1011.98 1012.35 1012.32 1012.98 1012.57 1013.32 1015.68 1016.26 1016.83 1017.34 1018.35 1019.16 1020.03 1021.23 1022.55 1022.71 1022.89 1023.04 1023.12
1001.73 1001.78 1001.69 1001.82 1001.87 1002.33 1002.85 1003.28 1003.99 1004.42 1005.32 1006.18 1007.14 1006.92 1008.05 1008.22 1008.95 1009.21 1010.48 1011.15 1011.40 1011.23 1011.92 1012.57 1013.20 1013.94 1014.55 1014.50 1014.45 1014.28 1015.69 1016.64 1017.07 1017.98 1018.45 1019.24 1019.76 1020.40 1021.20 1021.92 1022.78 1023.66 1024.42 1024.44
1001.34 1001.52 1001.47 1001.72 1002.05 1002.67 1003.30 1004.02 1005.05 1005.97 1006.65 1007.81 1008.93 1009.41 1009.72 1010.07 1010.32 1011.31 1011.91 1012.40 1012.69 1013.15 1014.22 1014.55 1014.58 1015.23 1015.43 1015.50 1015.49 1016.18 1017.07 1018.07 1018.82 1019.03 1019.62 1020.50 1020.80 1021.47 1022.13 1022.67 1023.33 1023.79 1024.22 1024.76
1001.59 1001.81 1001.86 1001.94 1002.10 1002.94 1003.90 1004.84 1006.07 1007.34 1008.42 1009.40 1010.58 1010.83 1011.36 1012.31 1012.65 1013.20 1013.85 1014.18 1014.32 1015.26 1016.13 1016.10 1016.16 1016.83 1016.80 1016.78 1017.34 1018.19 1019.07 1019.66 1019.78 1020.15 1021.00 1021.58 1021.93 1022.48 1023.00 1023.60 1024.21 1024.88 1025.60 1026.01
1002.68 1002.36 1002.11 1002.51 1003.18 1003.99 1004.71 1006.04 1007.35 1008.41 1009.50 1010.16 1011.76 1012.84 1012.79 1013.61 1014.52 1015.09 1015.90 1016.57 1016.82 1016.96 1017.15 1017.87 1017.75 1018.06 1018.09 1018.24 1018.31 1019.41 1020.37 1021.00 1021.35 1021.72 1022.22 1022.76 1023.37 1023.71 1024.19 1024.72 1025.24 1025.84 1026.85 1027.61
1004.32 1004.05 1003.93 1003.87 1004.07 1005.20 1006.01 1007.09 1008.47 1009.60 1010.64 1011.60 1012.81 1013.52 1014.71 1014.66 1015.58 1016.62 1017.51 1017.90 1017.83 1018.37 1018.85 1019.38 1019.31 1019.35 1019.62 1019.92 1020.21 1021.00 1021.66 1022.24 1022.71 1023.13 1023.76 1024.34 1024.69 1025.10 1025.60 1025.97 1026.31 1026.75 1027.24 1027.96
1005.60 1005.26 1005.17 1005.06 1005.21 1006.10 1007.11 1008.43 1009.82 1011.41 1012.15 1012.70 1013.29 1014.77 1016.01 1016.38 1016.97 1017.63 1018.20 1018.55 1019.23 1019.81 1020.64 1020.65 1020.85 1020.89 1021.08 1021.70 1021.98 1022.58 1022.96 1023.57 1024.29 1024.85 1025.37 1025.70 1025.92 1026.32 1026.65 1027.01 1027.48 1027.87 1028.04 1028.18
1007.15 1006.87 1006.76 1006.87 1007.28 1007.80 1008.73 1010.19 1011.52 1013.00 1013.23 1013.85 1014.46 1016.01 1017.38 1017.93 1018.14 1018.26 1019.11 1020.06 1020.80 1021.05 1021.62 1021.95 1022.09 1022.19 1022.74 1023.36 1023.59 1024.05 1024.55 1025.17 1025.49 1025.94 1026.37 1026.66 1027.05 1027.51 1028.26 1028.64 1028.52 1028.57 1028.69 1028.79
1008.46 1008.50 1008.66 1009.06 1009.63 1010.28 1010.81 1011.43 1012.50 1013.35 1014.56 1015.30 1015.49 1016.67 1018.48 1019.74 1019.63 1020.00 1020.47 1021.27 1022.45 1022.65 1022.84 1023.09 1023.24 1023.80 1024.44 1024.72 1024.99 1025.53 1025.99 1026.36 1026.74 1027.10 1027.48 1027.88 1028.29 1028.55 1028.74 1028.96 1029.13 1029.25 1029.37 1029.48
1009.99 1010.28 1010.66 1011.04 1011.38 1012.07 1012.85 1013.26 1013.77 1014.47 1015.79 1016.46 1017.25 1017.95 1019.27 1020.56 1021.40 1021.82 1022.29 1022.47 1023.53 1023.94 1024.02 1024.46 1025.07 1025.66 1025.92 1026.04 1026.32 1026.67 1027.06 1027.52 1027.87 1028.13 1028.49 1028.77 1028.96 1029.18 1029.48 1029.68 1029.81 1030.01 1030.13 1030.21
1011.68 1011.88 1012.15 1012.61 1013.10 1013.71 1014.53 1015.27 1015.81 1016.27 1017.00 1017.86 1018.53 1019.59 1020.71 1021.52 1022.36 1022.60 1023.24 1024.37 1024.76 1025.27 1025.56 1026.37 1026.87 1027.06 1027.35 1027.40 1027.68 1027.93 1028.23 1028.59 1028.93 1029.27 1029.58 1029.85 1030.00 1030.13 1030.24 1030.51 1030.62 1030.69 1030.68 1030.62
1012.54 1012.93 1013.50 1014.07 1014.51 1014.94 1015.64 1016.96 1017.56 1018.13 1018.51 1019.60 1020.46 1021.46 1022.07 1022.89 1023.75 1024.79 1025.06 1025.62 1026.11 1026.60 1027.15 1027.91 1028.19 1028.17 1028.25 1028.50 1028.65 1028.86 1029.09 1029.50 1029.96 1030.32 1030.60 1030.72 1030.73 1030.91 1031.02 1031.15 1031.10 1031.04 1030.97 1030.83
1013.71 1014.14 1014.65 1015.12 1015.55 1016.66 1017.29 1018.22 1018.88 1019.72 1020.35 1021.09 1022.20 1022.93 1023.45 1024.23 1024.72 1025.79 1026.07 1026.85 1027.54 1027.84 1028.48 1029.44 1029.23 1029.01 1028.97 1029.24 1029.48 1029.79 1029.97 1030.44 1031.01 1031.08 1031.17 1031.26 1031.34 1031.39 1031.32 1031.34 1031.40 1031.41 1031.28 1031.07
1014.86 1015.22 1015.85 1016.44 1016.94 1017.76 1018.34 1019.00 1019.71 1020.81 1021.66 1022.51 1023.67 1024.46 1025.18 1025.92 1026.50 1026.58 1027.32 1028.09 1028.62 1028.96 1029.20 1029.51 1029.41 1029.43 1029.83 1030.16 1030.32 1030.50 1030.70 1031.17 1031.50 1031.79 1031.82 1031.65 1031.69 1031.55 1031.64 1031.74 1031.65 1031.40 1031.29 1031.16
1016.30 1016.58 1017.06 1017.74 1018.45 1019.22 1019.82 1020.38 1020.92 1022.16 1023.09 1023.63 1024.22 1025.41 1026.19 1026.73 1027.25 1027.79 1028.28 1028.94 1029.56 1029.80 1029.77 1029.84 1029.90 1030.24 1030.47 1030.65 1030.96 1031.30 1031.44 1031.85 1032.57 1032.17 1031.98 1031.92 1031.91 1031.81 1032.02 1031.96 1031.74 1031.60 1031.42 1031.19
Wind_Speed
14 19 18 17 18 17 16 13 14 15 19 13 14 19 18 14 11 8 9 9 10 12 14 15 16 16 17 17 18 18 19 18 17 16 15 15 16 15 16 16 16 17 16 17
14 16 18 21 21 21 21 19 22 22 27 20 20 18 21 19 20 18 11 11 10 12 13 14 15 14 15 15 15 16 16 15 14 14 14 14 14 14 15 16 16 15 15 14
12 4 12 16 22 22 22 20 17 20 19 18 20 22 22 16 15 15 13 13 11 11 11 11 12 12 14 14 14 14 13 13 12 12 12 12 13 13 13 11 9 9 6 3
6 10 10 6 3 14 18 14 10 14 18 21 17 19 20 16 13 10 10 11 12 10 6 8 8 11 11 11 13 13 12 10 10 9 9 9 9 7 1 7 9 8 10 11
5 9 16 18 8 10 13 10 5 11 11 14 20 19 20 15 10 8 6 6 5 5 5 10 9 10 10 11 10 10 10 8 6 6 7 9 10 9 9 10 12 11 11 12
8 8 6 4 13 5 8 13 8 10 14 14 13 15 13 7 3 6 7 6 4 7 10 11 12 12 17 14 14 12 12 11 12 12 12 13 12 12 11 12 13 10 13 13
13 11 9 15 13 11 9 7 16 17 17 18 13 14 2 7 7 7 12 13 10 11 12 13 14 16 16 15 15 14 15 16 16 15 15 14 14 12 12 13 13 13 14 12
7 7 14 6 6 7 11 19 19 16 18 20 15 3 6 8 10 10 12 16 13 13 13 13 16 15 18 17 14 16 17 17 17 16 12 12 15 13 13 12 13 12 11 11
7 6 11 10 4 14 17 19 18 8 21 17 6 4 7 8 10 12 13 15 14 14 15 15 14 15 17 14 15 16 19 19 18 17 15 14 13 12 10 11 9 9 8 8
5 8 13 1 13 17 15 16 14 15 17 8 6 7 9 6 9 14 13 14 13 16 16 15 15 15 15 15 16 18 21 18 17 17 17 15 12 10 10 9 8 8 8 7
9 11 11 11 10 12 16 13 10 13 13 5 9 12 13 7 6 11 15 11 13 14 15 18 14 15 15 16 18 22 19 17 17 14 17 16 15 12 12 14 12 8 9 8
11 12 12 12 14 14 17 14 12 9 1 7 7 10 14 13 10 7 13 14 13 16 16 15 16 16 15 15 18 20 17 12 11 12 13 13 14 15 28 25 27 27 24 14
14 15 13 13 12 16 10 9 7 9 7 7 10 11 11 11 15 13 12 14 15 15 17 16 16 17 15 17 17 17 19 13 11 11 10 10 10 11 12 17 26 24 23 22
19 18 16 16 12 6 4 4 8 11 9 9 9 14 11 13 14 19 11 12 13 16 16 16 16 15 12 15 16 19 17 16 12 11 10 10 9 9 8 8 8 8 17 17
21 16 15 14 12 6 3 7 8 9 10 11 10 10 12 15 18 16 13 13 14 16 14 13 16 15 12 14 17 16 14 12 11 11 11 10 10 9 8 8 8 7 6 9
16 7 8 10 7 3 3 5 8 10 10 12 11 13 17 16 17 16 13 12 14 14 13 14 15 14 13 16 18 15 15 17 14 11 10 9 9 8 8 8 8 7 7 8
13 14 10 5 4 5 6 6 8 11 12 14 14 14 17 18 17 17 16 14 14 15 15 14 15 14 15 15 16 12 11 12 14 11 10 9 9 9 8 7 6 7 7 8
7 6 7 6 5 7 9 10 11 12 13 17 14 15 13 17 17 16 14 14 16 17 15 14 14 15 16 15 14 11 10 10 10 10 9 9 9 8 8 7 7 6 5 6
6 5 3 3 7 10 12 13 13 13 15 15 16 16 14 15 15 15 15 16 15 15 13 14 17 17 17 15 13 10 11 11 11 10 9 10 9 8 7 7 6 5 5 5
4 4 5 7 9 12 15 15 16 14 15 17 19 17 15 13 13 15 16 17 14 11 14 14 15 15 16 14 13 10 11 10 10 9 8 8 8 7 7 7 5 5 5 5
6 7 9 10 12 12 13 14 16 16 15 15 19 19 16 12 14 14 16 13 13 13 14 15 12 11 10 11 11 10 10 10 9 9 8 7 7 6 6 6 5 5 5 5
8 9 10 12 13 14 12 13 15 17 16 17 17 18 17 16 15 15 13 13 10 12 11 10 10 13 11 12 10 10 10 9 8 7 7 6 6 5 5 5 5 5 4 4
9 11 12 12 14 16 16 15 15 17 18 16 16 16 14 11 10 10 11 11 10 12 11 11 13 14 13 9 9 9 10 9 8 7 6 6 5 5 5 5 4 4 4 5
12 14 16 15 15 17 18 15 15 16 17 17 16 13 13 11 11 10 12 15 15 13 11 10 12 13 11 8 8 8 8 8 7 6 5 5 4 3 3 3 3 4 4 4
13 15 16 15 16 13 17 18 16 16 17 18 16 14 14 9 8 10 11 11 14 12 11 12 12 11 8 8 8 7 7 6 6 5 4 4 3 3 3 4 4 5 5 5
12 10 11 13 12 10 10 11 11 11 11 12 11 10 11 10 10 11 10 11 10 11 8 7 7 8 7 7 7 6 6 5 4 4 3 3 3 3 4 4 5 5 5 6
12 12 11 11 10 10 9 10 11 11 10 10 12 10 10 10 11 10 11 9 8 7 7 6 6 7 5 5 5 5 4 4 4 4 3 3 3 4 4 5 5 5 6 6
Wind_Direction
258 276 285 279 278 275 263 257 258 273 274 270 247 263 277 281 280 296 256 189 200 208 205 197 197 197 202 197 196 201 205 208 209 206 206 208 211 212 218 220 223 227 230 234
262 254 257 263 266 260 257 263 268 263 258 260 271 267 265 260 266 270 263 262 211 201 219 208 199 199 198 190 194 198 204 207 209 207 209 209 213 214 220 222 226 230 235 243
250 258 270 250 246 250 259 248 269 270 270 256 247 241 248 248 248 254 256 261 257 213 209 215 200 196 197 187 179 187 197 200 203 208 211 210 212 215 221 223 229 235 247 297
279 290 233 264 316 241 248 258 284 296 277 251 256 241 234 255 252 252 266 275 269 274 200 188 190 182 182 177 172 175 181 184 186 192 203 208 211 218 71 54 59 64 58 57
251 252 276 298 273 228 242 278 338 333 326 258 249 259 259 256 269 290 320 306 307 308 147 131 143 141 147 146 144 129 117 123 121 120 95 79 76 72 70 73 68 64 62 62
225 255 260 224 16 352 310 273 8 359 340 337 313 254 253 246 132 108 88 63 85 111 113 119 121 122 115 114 104 92 92 88 83 82 82 79 77 75 77 79 79 74 69 62
229 245 257 281 331 322 240 342 351 331 333 314 323 292 31 99 75 81 96 96 98 98 99 102 103 104 97 96 90 92 91 87 81 78 79 79 81 79 83 83 82 76 73 63
218 240 243 4 46 333 326 317 312 329 312 304 325 334 82 97 98 104 97 90 89 91 87 98 101 101 95 88 92 90 84 81 80 80 81 82 84 81 80 85 85 82 80 70
211 212 284 310 335 297 294 290 304 283 281 284 334 116 98 106 98 91 86 88 84 81 76 69 84 91 93 97 94 89 86 80 78 75 71 70 75 79 79 77 79 77 75 73
213 229 242 160 276 260 285 320 305 272 270 258 121 112 109 121 124 109 93 92 97 89 84 77 73 79 91 96 98 93 88 85 81 80 80 71 66 59 64 65 73 77 78 80
269 280 280 269 235 312 325 329 339 330 260 198 146 148 131 115 112 110 104 93 92 94 93 87 92 92 96 101 101 90 89 88 87 82 81 76 63 59 66 53 51 70 62 56
275 287 295 293 305 307 312 325 344 341 213 122 139 137 128 124 102 95 98 107 95 93 99 101 98 94 94 99 97 101 91 84 88 94 90 89 87 77 65 70 69 66 63 74
277 285 297 298 300 289 294 353 13 30 36 89 90 104 113 110 94 79 87 89 99 102 96 91 88 83 82 87 93 93 92 101 95 90 94 100 101 102 99 78 68 65 68 65
282 285 283 282 292 317 312 76 69 71 64 78 95 105 105 102 105 97 66 79 87 86 85 88 89 82 81 88 85 83 89 87 90 89 91 90 89 88 89 88 83 80 60 54
275 279 275 285 283 263 193 136 106 83 87 75 80 86 89 94 83 80 88 88 81 79 75 81 81 75 80 85 85 89 88 86 89 87 83 86 87 85 83 80 74 67 62 58
287 295 284 282 297 178 159 166 133 111 102 99 95 95 95 87 85 82 74 77 85 84 81 76 79 85 88 89 90 87 83 86 87 86 87 82 79 83 82 78 73 62 46 30
279 274 269 269 224 168 162 155 145 136 130 116 114 112 106 99 86 78 72 72 75 78 79 78 84 84 83 84 88 87 86 83 85 83 80 78 78 77 75 75 73 72 71 38
305 302 302 291 215 170 139 132 135 133 128 120 115 110 103 103 103 99 92 90 86 76 69 72 77 80 78 76 80 85 86 83 81 81 83 82 81 79 77 73 68 66 63 87
340 328 352 74 141 142 131 124 119 121 123 117 111 105 106 101 102 102 102 90 86 86 82 84 83 81 79 77 83 83 87 88 87 87 89 93 83 77 77 76 74 64 48 38
28 55 76 94 115 129 121 122 123 122 116 113 110 105 99 100 101 96 89 86 87 93 93 89 85 80 80 79 85 88 90 92 91 86 82 85 84 87 94 72 55 48 37 25
71 90 104 105 103 105 112 118 122 117 113 110 107 104 100 94 93 97 99 98 89 87 87 84 82 84 85 93 90 90 90 89 88 89 89 91 95 80 70 56 50 38 25 12
76 88 96 104 105 102 100 108 110 109 111 105 100 99 98 92 84 84 79 93 96 89 87 80 79 81 88 91 89 91 91 91 91 89 85 80 73 69 60 46 34 20 6 353
90 92 91 91 95 95 91 90 96 100 102 101 102 104 103 103 108 102 99 88 90 87 87 86 91 89 88 86 88 90 89 87 84 80 77 72 63 54 41 35 5 1 349 350
105 103 102 105 106 99 97 93 92 90 89 88 85 86 97 98 85 79 87 93 95 94 93 91 86 87 89 88 87 86 86 85 85 83 84 65 58 48 32 14 355 344 343 338
104 105 104 104 102 100 103 102 97 92 91 88 87 86 90 87 92 105 97 98 101 99 95 87 84 85 82 82 82 86 86 78 68 72 61 57 40 26 9 7 342 345 333 321
106 103 98 101 102 104 104 104 97 97 98 95 92 93 93 94 99 96 94 101 104 109 103 96 83 84 84 84 84 81 89 99 86 63 32 34 20 6 358 343 329 326 323 320
87 89 94 93 86 92 95 98 102 103 102 103 103 102 100 97 94 101 104 107 105 104 103 97 85 70 78 82 86 93 93 91 43 17 22 9 357 351 337 326 324 321 313 310